Powrót do katalogu

DELTA 1 DEB

AktywnyLEO
NORAD 7184·DEBRIS·🇺🇸 United States

Wystrzelony Nov 6, 1973 z Vandenberg Space Force Base

Loading…

Następne Przeloty (najbliższe 24 godziny)

TLE

ŚwieżeSource: Space-Track

Epoka: Sep 14, 2026, 11:32 UTC

1 07184U 73086EV  26257.48077328  .00000710  00000-0  21525-2 0  9990
2 07184 102.3035 251.7534 0192505  13.0364 140.7937 13.05428019494980

Śledź DELTA 1 DEB w czasie rzeczywistym z AllMySat

Download on the App Store